Weather in Subang

Malaysia     3°09′32″N   101°31′10″E
temp.,
°C
wind,
m/s
gust,
m/s
humid.,
%
clouds,
%
prec.,
mm/h
press.,
hPa
HPBL,
m
22 october, fri
fri2223:00+25n1191100 0.1 101316
02:00+24nnw1297100 3.3 101168
05:00+24n1296100 2.7 101145
08:00+25ne1193100 3.0 101255
11:00+29w1169100 0.0 1013608
14:00+32wsw2255100 0.0 10101376
17:00+27w257998 0.7 1009168
20:00+26n0088100 1.8 101211
23 october, sat
sat2323:00+25ene118997 0.1 101317
02:00+24ese119486 3.1 101213
05:00+23n1196100 3.1 101121
08:00+24n129478 3.3 101390
11:00+30nw226681 0.0 1013911
14:00+32w335749 0.6 10101592
17:00+30w226596 1.6 1009783
20:00+25nw118876 2.3 101113
24 october, sun
sun2423:00+24nne1193100 0.9 101321
02:00+23nne119695 3.9 101128
05:00+23ne1196100 4.6 101032
08:00+23nnw1496100 5.3 1012158
11:00+28nnw1273100 0.0 1013517
14:00+31w3357100 0.1 10101315
17:00+28w3467100 0.2 1008745
20:00+25nw1188100 0.2 101025
25 october, mon
mon2523:00+24n1191100 0.0 101228
02:00+24n1293100 0.1 101051
05:00+23nne1193100 0.0 100916
08:00+25ene1187100 0.1 101182
11:00+30sw1261100 0.6 1011987
14:00+29sw3272100 2.4 1009968
17:00+28wsw1178100 1.8 1007515
20:00+25nw1190100 2.0 100911
26 october, tue
tue2623:00+25nne1191100 0.0 101115
02:00+24nne119263 0.0 100919
05:00+23nne119449 0.1 100815
08:00+25ne118819 0.1 101080
11:00+32wsw115733 0.1 10101119
14:00+32wsw225324 1.2 10071604
17:00+30w326299 0.4 1006853
20:00+26wnw1182100 0.5 100813